www.pogodaiklimat.ru

Погода и климат >> Архив погоды >> Россия >> Чукотка >> Чаун


ПОГОДА в Чауне

  • Прогноз погоды в Чауне
  • Монитор погоды в Чауне
  • Климат города

АРХИВ ПОГОДЫ в Чауне

Время (UTC), дата Ветер
(напр.,м/с)
 
Видим.   Явления Облачность Т
(С)
Тd
(С)
f
(%)
Тe
(С)
Тes
(С)
Комфортность P
(гПа)
Po
(гПа)
Тmin
(С)
Tmax
(С)
R
(мм)
S
(см)
03 16.03 Ю 8-10
{11}
20 км позёмок {метель} 4/0
[Ac lent Ci fib]
-9.6 -12.2 81 -19 -19 1017.6 1017.0
06 16.03 ЮВ 5
{10}
50 км {метель} 4/0
[Ac lent Ci fib]
-12.3 -14.3 85 -20 -20 1017.6 1017.0
09 16.03 Ю 4
{7}
50 км 4/0
[Ac lent Ci fib]
-11.9 -13.2 90 -19 -19 1018.3 1017.7 -9.2
12 16.03 З 2
{5}
50 км 4/0
[Ac lent Ci fib]
-14.6 -15.9 90 -20 -20 1018.9 1018.3
15 16.03 З 3
{4}
50 км 4/0
[Ac lent]
-19.2 -21.1 85 -27 -27 1019.6 1019.0
18 16.03 З 2
{4}
50 км 4/0
[Ac lent]
-20.4 -22.3 85 -26 -26 1019.9 1019.3
21 16.03 ЮВ 2
{4}
4000 м дымка 4/0
[Ci fib]
-21.1 -22.9 85 -27 -26 1020.3 1019.7 -22.8 47
00 17.03 ЮВ 2
{4}
50 км 3/0
[Ci sp]
-16.4 -18.8 82 -22 -19 1020.2 1019.6
03 17.03 В 6
{7}
50 км ясно -13.2 -15.3 84 -22 -22 1019.6 1019.0
06 17.03 В 5
{7}
50 км ясно -15.8 -17.7 85 -25 -25 1019.2 1018.6
09 17.03 ЮВ 6
{8}
50 км 3/0
[Ac lent]
-17.7 -19.6 85 -28 -28 1019.3 1018.7 -13.0
12 17.03 ЮВ 6
{9}
50 км 3/0
[Ac lent]
-18.6 -20.4 86 -29 -29 1019.6 1019.0
15 17.03 ЮВ 5
{8}
50 км 4/0
[Ac lent]
-19.8 -21.7 85 -30 -30 1019.6 1019.0
18 17.03 В 2
{6}
50 км 6/0
[Ac trans]
-17.5 -19.4 85 -23 -23 1020.4 1019.8
21 17.03 СЗ 1
{3}
4000 м слабый снег 10/3 200 м
[Frnb As op]
-15.8 -17.7 85 -18 -18 1021.9 1021.3 -20.1 0.5 48
00 18.03 СЗ 3
{4}
20 км {снег} 6/4 200 м
[St Ac lent]
-15.4 -17.3 85 -22 -21 1022.8 1022.2
03 18.03 С 1
{4}
50 км 4/0
[Ac lent]
-14.0 -17.5 75 -16 -15 1023.5 1022.9
06 18.03 З 1
{2}
50 км 4/0
[Ac lent]
-17.8 -19.0 90 -21 -21 1023.5 1022.9
09 18.03 ЮВ 1
{3}
50 км 4/0
[Ac lent]
-23.4 -25.9 80 -27 -27 1023.0 1022.3 -12.9 0.2
12 18.03 ЮВ 3
{4}
50 км 4/0
[Ac lent]
-23.9 -25.7 85 -32 -32 опасность
обморожения
1021.5 1020.8
15 18.03 ЮВ 3
{5}
50 км 4/0
[Ac lent]
-23.5 -26.0 80 -32 -32 опасность
обморожения
1019.6 1018.9
18 18.03 В 4
{5}
50 км 6/0
[Ac trans]
-23.7 -25.5 85 -33 -33 опасность
обморожения
1017.7 1017.0
21 18.03 ЮВ 2
{5}
50 км 6/0
[Ac trans Ci fib]
-22.6 -24.4 85 -29 -28 1016.5 1015.8 -25.6 48
00 19.03 ЮВ 2
{4}
50 км 6/0
[Ac trans Ci fib]
-21.4 -23.3 85 -27 -25 1016.5 1015.9
03 19.03 З 1
{3}
50 км 4/0
[Ac lent]
-20.0 -21.9 85 -23 -21 1017.3 1016.7
06 19.03 СЗ 4
{6}
50 км 4/0
[Ac lent]
-16.8 -18.7 85 -25 -25 1018.9 1018.3
09 19.03 СЗ 7
{8}
50 км позёмок {метель} 4/0
[Ac lent]
-17.4 -19.3 85 -28 -28 1020.7 1020.1 -16.5
12 19.03 З 4
{8}
50 км {метель} 4/0
[Ac lent]
-22.2 -24.0 85 -32 -32 опасность
обморожения
1022.2 1021.6
15 19.03 Ю 1
{5}
50 км 4/0
[Ac lent]
-23.8 -25.6 85 -27 -27 1023.1 1022.4
18 19.03 ЮВ 5
{6}
50 км 3/0
[Ac lent]
-27.1 -29.4 81 -39 -39 опасность
обморожения
1023.2 1022.5
21 19.03 В 4
{6}
50 км 3/0
[Ci fib]
-26.0 -28.4 80 -36 -36 опасность
обморожения
1023.6 1022.9 -28.7 48
00 20.03 В 4
{6}
50 км 3/0
[Ci fib]
-21.3 -23.1 85 -31 -29 опасность
обморожения
1023.2 1022.6
03 20.03 ЮВ 5
{7}
50 км ясно -19.4 -21.5 83 -29 -28 1022.4 1021.8
06 20.03 В 5
{7}
50 км ясно -22.0 -24.3 82 -33 -32 опасность
обморожения
1022.1 1021.5
09 20.03 В 5
{7}
50 км 3/0
[Ac lent]
-24.8 -27.0 82 -36 -36 опасность
обморожения
1022.4 1021.7 -19.0
12 20.03 ЮВ 4
{6}
50 км 3/0
[Ac lent]
-26.7 -29.1 80 -37 -37 опасность
обморожения
1021.8 1021.1
15 20.03 ЮВ 4
{6}
50 км 3/0
[Ac lent]
-27.1 -29.4 81 -38 -38 опасность
обморожения
1021.4 1020.7
18 20.03 ЮВ 4
{6}
50 км 3/0
[Ac lent]
-26.1 -28.5 80 -36 -36 опасность
обморожения
1020.8 1020.1
21 20.03 ЮВ 3
{5}
50 км ясно -25.5 -28.1 79 -34 -33 опасность
обморожения
1021.4 1020.7 -28.0 48
00 21.03 ЮВ 3
{5}
50 км 6/0
[Ac lent Ci fib]
-19.2 -21.8 80 -27 -25 1020.9 1020.3
03 21.03 В 1
{4}
50 км 9/0
[Ac trans]
-16.5 -20.0 74 -19 -18 1020.4 1019.8
06 21.03 Ю 2
{3}
20 км 9/0
[Ac trans]
-15.8 -17.7 85 -21 -21 1020.1 1019.5
09 21.03 Ю 3
{4}
20 км 8/0
[Ac trans]
-17.1 -19.0 85 -24 -24 1020.0 1019.4 -15.4
12 21.03 СЗ 1
{4}
20 км 8/0
[Ac trans]
-19.5 -20.8 89 -22 -22 1019.6 1019.0
15 21.03 Ю 2
{3}
20 км 8/0
[Ac trans]
-21.2 -23.0 85 -27 -27 1019.8 1019.2
18 21.03 ЮВ 4
{4}
50 км 8/0
[Ac trans]
-22.1 -24.0 84 -32 -32 опасность
обморожения
1019.5 1018.9
21 21.03 ЮВ 3
{4}
50 км 4/0
[Ac trans]
-22.1 -24.0 84 -30 -29 1019.9 1019.3 -23.7 48
00 22.03 ЮВ 3
{5}
50 км 4/0
[Ac trans]
-18.4 -20.3 85 -26 -24 1019.9 1019.3
03 22.03 В 3
{5}
50 км 4/0
[Ac lent]
-16.3 -18.9 80 -23 -22 1019.5 1018.9
06 22.03 ЮВ 3
{5}
50 км 4/0
[Ac lent]
-18.5 -20.4 85 -26 -26 1019.5 1018.9
09 22.03 ЮВ 4
{5}
50 км 4/0
[Ac lent]
-20.6 -22.5 85 -30 -30 1019.9 1019.3 -15.7
12 22.03 Ю 5
{6}
50 км 4/0
[Ac lent]
-20.7 -23.2 80 -31 -31 опасность
обморожения
1019.8 1019.2
15 22.03 Ю 5
{6}
50 км 4/0
[Ac lent]
-21.5 -24.0 80 -32 -32 опасность
обморожения
1019.6 1019.0
18 22.03 ЮВ 4
{6}
50 км 4/0
[Ac lent]
-22.2 -24.7 80 -32 -32 опасность
обморожения
1019.7 1019.1
21 22.03 ЮВ 4
{6}
50 км 4/0
[Ac lent Ci fib]
-20.2 -22.8 80 -29 -28 1019.8 1019.2 -22.4 48

 

Местоположение метеостанции Чаун (Чукотка, Россия): широта 68.88 долгота 170.70 высота над уровнем моря 5 м.

В архиве по умолчанию представлена погода в Чауне за последнюю неделю. Архивные данные за месяц целиком и за предыдущие месяцы, начиная с января 2011 года, Вы можете получить, выбрав интересующий диапазон дат из раскрывающегося списка и нажав кнопку "Ввод!".

Внимание! Время в таблицах - всемирное. Для получения местного времени необходимо прибавить поправку, которая в Чауне равна 12 ч.

Смотрите также архив погоды в соседних городах и на ближайших метеорологических станциях:

Погода в 21 км (Чукотка, Россия) (84 км)
Погода в Комсомольской (Чукотка, Россия) (89 км)
Погода в Певеке (Чукотка, Россия) (93 км)
Погода в Майской (Чукотка, Россия) (117 км)
Погода в Валькаркае (Чукотка, Россия) (134 км)
Погода в Паляваам-Глубокой (Чукотка, Россия) (137 км)
Погода на Айон Острове (Чукотка, Россия) (160 км)
Погода в Раучуе (Чукотка, Россия) (180 км)
Погода в Билибино (Чукотка, Россия) (198 км)
Погода в Илирнее (Чукотка, Россия) (215 км)

Пояснения к столбцам:

Ветер - указаны скорость ветра в м/с - средняя за 10 мин, порывы в срок и между сроками (в фигурных скобках) и направление, откуда дует ветер: С - северный, СВ - северо-восточный, В - восточный, ЮВ - юго-восточный, Ю - южный, ЮЗ - юго-западный, З - западный, СЗ - северо-западный.
Видимость - горизонтальная дальность видимости в метрах или километрах. При видимости от 1 до 10 км при отсутствии осадков обычно наблюдается дымка, при ухудшении видимости до 1 км и менее - туман. В сухую погоду видимость может ухудшаться дымом, пылью или мглою.
Явления - указаны атмосферные явления, наблюдавшиеся в срок или в последний час перед сроком; фигурными скобками обозначены явления, наблюдавшиеся между сроками (за 1-3 часа до срока); квадратными скобками обозначены град или гололедные отложения с указанием их диаметра в мм.
Облачность - указаны через наклонную черту общая и нижняя облачность в баллах и высота нижней границы облаков в метрах; квадратными скобками обозначены формы облаков: Ci - перистые, Cs - перисто-слоистые, Cc - перисто-кучевые, Ac - высококучевые, As - высокослоистые, Sc - слоисто-кучевые, Ns - слоисто-дождевые, Cu - кучевые, Cb - кучево-дождевые. Подробнее классификацию облаков см. в Атласе облаков (PDF).
T - Температура воздуха - температура, измеренная на высоте 2 м над землей.
Td - Температура точки росы - температура, при понижении до которой содержащийся в воздухе водяной пар достигнет насыщения.
f - Относительная влажность воздуха - влажноcть воздуха, измеренная на высоте 2 м над землей.
Te - Эффективная температура - температура, которую ощущает одетый по сезону человек в тени. Характеристика душности погоды. При расчете учитывается влияние влажности воздуха и скорости ветра на теплоощущения человека.
Tes - Эффективная температура на солнце - температура, которую ощущает человек, с поправкой на солнечный нагрев. Характеристика знойности погоды. Зависит от высоты солнца над горизонтом, облачности и скорости ветра. Ночью, в пасмурную погоду, а также при ветре 12 м/с и более поправка равна нулю.
P - Атмосферное давление - приведенное к уровню моря атмосферное давление.
Po - Атмосферное давление - измеренное на уровне метеостанции атмосферное давление.
Tmin - Минимальная температура - минимум температуры воздуха на высоте 2 м над землей.
Tmax - Максимальная температура - максимум температуры воздуха на высоте 2 м над землей.
R - Количество осадков - Количество выпавших осадков, мм. При наведении курсора мыши на число - период времени, за который выпало указанное количество осадков.
S - Снежный покров - Высота снежного покрова, см. При наведении курсора мыши на число - состояние снежного покрова и степень покрытия местности в баллах.